BEIJING 1 1 28890U 05043A 26257.30166242 .00000241 00000+0 55900-4 0 9994 2 28890 98.3043 31.0736 0014857 8.2360 351.9083 14.63576359113687 HUANJING 1A (HJ-1A) 1 33320U 08041A 26257.23240172 .00000393 00000+0 53112-4 0 9997 2 33320 97.6776 239.6808 0018040 202.2814 157.7619 14.84157610971610 HUANJING 1B (HJ-1B) 1 33321U 08041B 26257.31016567 .00000386 00000+0 52860-4 0 9997 2 33321 97.6608 242.6530 0034677 250.6352 109.1112 14.83459127971626 YAOGAN-4 1 33446U 08061A 26257.28111749 .00000711 00000+0 93247-4 0 9997 2 33446 97.9324 190.1472 0015141 135.9871 224.2551 14.83341177958873 DEIMOS-1 1 35681U 09041A 26257.24079025 .00000091 00000+0 20457-4 0 9999 2 35681 97.7523 50.6749 0000229 88.4731 271.6505 14.75312653920018 UK-DMC 2 1 35683U 09041C 26257.29830225 .00000629 00000+0 98218-4 0 9990 2 35683 97.8964 30.1537 0001243 69.7608 290.3735 14.76140645919719 DMC3-FM1 1 40715U 15032A 26257.30435172 .00000201 00000+0 28992-4 0 9991 2 40715 97.6318 118.9301 0006819 112.2685 247.9255 14.85816072603145 DMC3-FM2 1 40716U 15032B 26257.25863358 .00000687 00000+0 84849-4 0 9998 2 40716 97.6369 120.5196 0007295 117.1453 243.0507 14.85827194603132 DMC3-FM3 1 40717U 15032C 26257.28263277 -.00000074 00000+0 -25903-5 0 9995 2 40717 97.6419 122.3503 0006458 115.4211 244.7674 14.85812600603144